Location: San Vito
(41.8833°N, 12.9833°E)
Time: 10:16:22
(UTC+00:00)

COSMO-SKYMED 1 - Pass Details

Date: 17 November 2019
Orbit: 621 x 623 km, 97.9° (Epoch: 06 December)

Event Time Altitude Azimuth Distance (km) Brightness Sun altitude
Rises 05:10:31 0° 196° (SSW) 2,889 6.0 -9.3°
Reaches altitude 10° 05:13:01 10° 209° (SSW) 1,987 5.0 -8.9°
Maximum altitude 05:16:35 25° 265° (W) 1,266 3.6 -8.3°
Drops below altitude 10° 05:20:11 10° 321° (NW) 2,000 4.7 -7.6°
Sets 05:22:43 0° 335° (NNW) 2,911 5.6 -7.2°
